Lexington Weather

Lexington, Massachusetts, USA

35°F
10/30/2020 6:07am 
  • Lexington Conditions: Light snow, Mist, Overcast
  • Temperature: 35.1°F / 1.7°CColder 0.9°F than last hour.
  • Dew Point: 34.3°FDecreased 0.9°Fsince last hour.
  • Relative Humidity: 97
  • Wind: Wind from NE NE 1 mph, 10-min avg: 2 mph, gust: 4 mph
  • Barometer: 29.76 in Steady
  • Visibility: 5 miles
  • Rain Today: 0.08 in
  •   
Southeast Middlesex County - Winter Weather Advisory
 - SEE ALL NEARBY ALERTS -

Regional Weather Roundup
for Boston / Norton, MA

        
000
ASUS41 KBOX 270305
RWRBOX

REGIONAL WEATHER ROUNDUP
NATIONAL WEATHER SERVICE BOSTON/NORTON MA
1100 PM EDT MON OCT 26 2020

NOTE:  "FAIR" INDICATES FEW OR NO CLOUDS BELOW 12,000 FEET WITH NO 
SIGNIFICANT WEATHER AND/OR OBSTRUCTIONS TO VISIBILITY.

MAZALL-270400-
EASTERN MASSACHUSETTS
  
CITY           SKY/WX    TMP DP  RH WIND       PRES   REMARKS
BOSTON         CLOUDY    53  52  96 SW5       30.09S                  
BEVERLY        FOG       50  49  96 CALM      30.08S VSB 1            
LAWRENCE       CLOUDY    47  47 100 W3        30.11S FOG              
BEDFORD        FOG       48  48 100 CALM      30.09R VSB 1/2          
BLUE HILL        N/A     51  51 100 SW8       30.07S                  
NORWOOD        CLOUDY    54  51  90 CALM      30.09S                  
MARSHFIELD     CLOUDY    57  57 100 CALM      30.08S                  
PLYMOUTH       CLOUDY    55  54  96 SW5       30.08S FOG              
TAUNTON        CLOUDY    55  53  93 CALM      30.09R                  
NEW BEDFORD    CLOUDY    56  56 100 CALM      30.08S FOG              
$$

MAZALL-270400-
CAPE COD AND THE ISLANDS
  
CITY           SKY/WX    TMP DP  RH WIND       PRES   REMARKS
FALMOUTH       CLOUDY    57  57 100 E5        30.08F                  
HYANNIS        CLOUDY    58  58 100 VRB3      30.07F                  
CHATHAM        LGT RAIN  58  57  97 SE5       30.08F FOG              
PROVINCETOWN   CLOUDY    57  57 100 S9        30.07F                  
NANTUCKET      FOG      N/A N/A N/A CALM      30.09S VSB 1/4          
MARTHAS VNYRD  CLOUDY    58  58 100 CALM      30.08F FOG              
$$
 
MAZALL-270400-
CENTRAL AND WESTERN MASSACHUSETTS
  
CITY           SKY/WX    TMP DP  RH WIND       PRES   REMARKS
WORCESTER      FOG       50  48  93 SW7       30.08F VSB 1/4          
FITCHBURG      CLOUDY    47 N/A N/A CALM      30.09F FOG              
ORANGE         CLOUDY    47  46  97 CALM      30.10F FOG              
SPRINGFIELD    CLOUDY    47  46  95 CALM      30.08F                  
WESTFIELD      CLOUDY    48  47  96 CALM      30.10F                  
NORTH ADAMS    CLOUDY    51  48  89 E6        30.07S                  
PITTSFIELD     FOG       48  47  96 CALM      30.07F VSB 3/4          
$$
 
RIZALL-270400-
RHODE ISLAND
  
CITY           SKY/WX    TMP DP  RH WIND       PRES   REMARKS
PROVIDENCE     CLOUDY    54  53  97 W3        30.10S                  
NEWPORT        CLOUDY    55  55 100 CALM      30.08F FOG              
BLOCK ISLAND   CLOUDY    57  57 100 E3        30.09F                  
SMITHFIELD     CLOUDY    52  52 100 SW3       30.09F                  
WESTERLY       CLOUDY    54  52  93 CALM      30.10F                  
$$
 
CTZALL-270400-
CONNECTICUT
  
CITY           SKY/WX    TMP DP  RH WIND       PRES   REMARKS
BRADLEY INTL   CLOUDY    49  46  90 E3        30.09F                  
HARTFORD       CLOUDY    52  46  80 CALM      30.10F                  
BRIDGEPORT     CLOUDY    59  58  96 SE5       30.10S                  
DANBURY        FOG       54  54 100 CALM      30.10F VSB 1            
GROTON         CLOUDY    55  53  93 SE3       30.09F                  
NEW HAVEN      CLOUDY    56  55  97 CALM      30.10S                  
CHESTER        FOG       54  54 100 CALM      30.10S VSB 1/4          
MERIDEN        CLOUDY    52  46  80 CALM      30.10F                  
WILLIMANTIC    CLOUDY    53  51  93 CALM      30.09F                  
OXFORD         FOG       52  52 100 S3        30.10F VSB 1/4          
$$

MEZ002-015-021-024-NHZ003-005-008-011-012-014-VTZ005-008-270400-
NORTHERN NEW ENGLAND
  
CITY           SKY/WX    TMP DP  RH WIND       PRES   REMARKS
PORTLAND ME    CLOUDY    43  43 100 W5        30.08F FOG              
BANGOR ME      RAIN      42  40  92 W3        30.05F VSB 1/2          
CONCORD NH     CLOUDY    43  41  93 NW3       30.09F FOG              
MANCHESTER NH  FOG       47  44  90 CALM      30.08S VSB 1            
NASHUA NH      CLOUDY    46  46 100 CALM        N/A  FOG              
PORTSMOUTH NH  FOG       45  44  99 W3        30.07  VSB 1/8          
JAFFREY NH     FOG       45  43  93 CALM      30.08F VSB 1            
KEENE NH       LGT RAIN  46  46 100 CALM      30.09F FOG              
BURLINGTON VT  LGT RAIN  45  43  93 N9        30.11R                  
MT. WASHINGTON LGT RAIN  36  36 100 W41         N/A  VSB 1/16WCI  21  
$$

NYZ052-076-270400-
EASTERN NEW YORK
  
CITY           SKY/WX    TMP DP  RH WIND       PRES   REMARKS
ALBANY         DRIZZLE   48  48 100 W5        30.11R FOG              
NEW YORK CITY  CLOUDY    59  56  89 S3        30.09F FOG              
$$
 
ANZALL-270400-
MARINE OBSERVATIONS
  
STATION/POSITION TIME  TEMP    WIND        PRES    VSBY  WAVE
                       AIR SEA DIR/SP/G                  HT/PER
                 (UTC) (F)     (DEG/KT/KT) (MB)    (MI)  (FT/S)
BOSTON BUOY      0250   55 56  250/  6/  8 1017.7R         3/ 5
BUZZARDS BAY     0200          130/  6/  6 1019.9F
NANTUCKET SOUND  0240      61  120/  8/ 10   N/A
MASS BAY-STELLWA 0204   56 56  260/  8/ 10 1018.0F  1 7/8  4/ 5
ISLE OF SHOALS   0200   48     330/  5/  6 1018.4F
S OF BLOCK IS    0226      62                N/A           5/ 7
$$

......................KEY.........................
  SKY/WX - SKY CONDITION/PRESENT WEATHER
  TMP    - TEMPERATURE IN FAHRENHEIT
  DWPT   - DEWPOINT IN FAHRENHEIT
  RH     - RELATIVE HUMIDITY IN PERCENT
  WIND   - DIRECTION AND SPEED IN MPH
  PRES   - MEAN SEA LEVEL PRESSURE IN INCHES OF HG
  WCI    - WIND CHILL INDEX
  VSB    - VISIBILITY IN MILES
  HX     - HEAT INDEX
  TC     - TEMPERATURE IN CELSIUS
  VRB    - VARIABLE WIND DIRECTION
  N/A    - NOT AVAILABLE
  
      

Other recent Regional Weather Roundups

Fri Oct 30, 5:04am

Fri Oct 30, 4:04am

Fri Oct 30, 3:04am

Fri Oct 30, 2:04am

Fri Oct 30, 1:04am

Fri Oct 30, 12:04am

Thu Oct 29, 11:04pm

Thu Oct 29, 10:04pm

Thu Oct 29, 9:04pm

Thu Oct 29, 8:04pm

Thu Oct 29, 7:04pm

Thu Oct 29, 6:04pm

Thu Oct 29, 5:05pm

Thu Oct 29, 4:05pm

Thu Oct 29, 3:05pm

Thu Oct 29, 2:04pm

Thu Oct 29, 1:04pm

Thu Oct 29, 12:04pm

Thu Oct 29, 11:04am

Thu Oct 29, 10:04am

Thu Oct 29, 9:04am

Thu Oct 29, 8:04am

Thu Oct 29, 7:04am

Thu Oct 29, 6:04am

Thu Oct 29, 5:04am

Thu Oct 29, 4:04am

Thu Oct 29, 3:04am

Thu Oct 29, 2:04am

Thu Oct 29, 1:05am

Thu Oct 29, 12:04am

Wed Oct 28, 11:05pm

Wed Oct 28, 10:04pm

Wed Oct 28, 9:04pm

Wed Oct 28, 8:04pm

Wed Oct 28, 7:05pm

Wed Oct 28, 6:04pm

Wed Oct 28, 5:05pm

Wed Oct 28, 4:04pm

Wed Oct 28, 3:04pm

Wed Oct 28, 2:04pm

Wed Oct 28, 1:05pm

Wed Oct 28, 12:05pm

Wed Oct 28, 11:05am

Wed Oct 28, 10:04am

Wed Oct 28, 9:04am

Wed Oct 28, 8:04am

Wed Oct 28, 7:04am

Wed Oct 28, 6:04am

Wed Oct 28, 5:05am

Wed Oct 28, 4:04am

Wed Oct 28, 3:04am

Wed Oct 28, 2:04am

Wed Oct 28, 1:05am

Wed Oct 28, 12:04am

Tue Oct 27, 11:04pm

Tue Oct 27, 10:04pm

Tue Oct 27, 9:05pm

Tue Oct 27, 8:04pm

Tue Oct 27, 7:04pm

Tue Oct 27, 6:04pm

Tue Oct 27, 5:04pm

Tue Oct 27, 4:05pm

Tue Oct 27, 3:04pm

Tue Oct 27, 2:04pm

Tue Oct 27, 1:04pm

Tue Oct 27, 12:04pm

Tue Oct 27, 11:04am

Tue Oct 27, 10:04am

Tue Oct 27, 9:04am

Tue Oct 27, 8:04am

Tue Oct 27, 7:04am

Tue Oct 27, 6:04am

Tue Oct 27, 5:04am

Tue Oct 27, 4:04am

Tue Oct 27, 3:04am

Tue Oct 27, 2:05am

Tue Oct 27, 1:04am

Tue Oct 27, 12:04am

Mon Oct 26, 10:04pm

Mon Oct 26, 9:04pm

Mon Oct 26, 8:04pm

Mon Oct 26, 7:04pm

Mon Oct 26, 6:04pm

Mon Oct 26, 5:04pm

Mon Oct 26, 4:05pm

Mon Oct 26, 2:04pm

Mon Oct 26, 1:04pm

Mon Oct 26, 12:04pm

Mon Oct 26, 11:05am

Mon Oct 26, 10:04am

Mon Oct 26, 9:04am

Mon Oct 26, 8:04am

Mon Oct 26, 7:04am

Mon Oct 26, 6:04am

Mon Oct 26, 5:04am

Mon Oct 26, 4:04am

Mon Oct 26, 3:04am

Mon Oct 26, 2:04am

Mon Oct 26, 1:04am

Mon Oct 26, 12:04am

Sun Oct 25, 11:05pm

Sun Oct 25, 10:04pm

Sun Oct 25, 9:04pm

Sun Oct 25, 8:04pm

Sun Oct 25, 7:04pm

Sun Oct 25, 6:04pm

Sun Oct 25, 5:04pm

Sun Oct 25, 4:05pm

Sun Oct 25, 3:04pm

Sun Oct 25, 2:04pm

Sun Oct 25, 1:04pm

Sun Oct 25, 12:04pm

Sun Oct 25, 11:04am

Sun Oct 25, 10:04am

Sun Oct 25, 9:04am

Sun Oct 25, 8:04am

Sun Oct 25, 7:04am

Sun Oct 25, 6:04am

Sun Oct 25, 5:04am

Sun Oct 25, 4:04am

Sun Oct 25, 3:04am

Sun Oct 25, 2:04am

Sun Oct 25, 1:05am

Sun Oct 25, 12:04am

Sat Oct 24, 11:04pm

Sat Oct 24, 10:04pm

Sat Oct 24, 9:04pm

Sat Oct 24, 8:04pm

Sat Oct 24, 7:04pm

Sat Oct 24, 6:04pm

Sat Oct 24, 5:05pm

Sat Oct 24, 4:04pm

Sat Oct 24, 3:04pm

Sat Oct 24, 2:04pm

Sat Oct 24, 1:05pm

Sat Oct 24, 12:04pm

Sat Oct 24, 11:05am

Sat Oct 24, 10:05am

Sat Oct 24, 9:04am

Sat Oct 24, 8:04am

Sat Oct 24, 7:04am

Sat Oct 24, 6:04am

Sat Oct 24, 5:04am

Sat Oct 24, 4:04am

Sat Oct 24, 3:04am

Sat Oct 24, 2:04am

Sat Oct 24, 1:05am

Sat Oct 24, 12:04am

Fri Oct 23, 11:04pm

Fri Oct 23, 10:04pm

Fri Oct 23, 9:04pm

Fri Oct 23, 8:05pm

Fri Oct 23, 7:04pm

Fri Oct 23, 6:04pm

Fri Oct 23, 5:05pm

Fri Oct 23, 4:04pm

Fri Oct 23, 3:04pm

Fri Oct 23, 2:05pm

Fri Oct 23, 1:04pm

Fri Oct 23, 12:04pm

Fri Oct 23, 11:04am

Fri Oct 23, 10:04am

Fri Oct 23, 9:04am

Fri Oct 23, 8:04am

Fri Oct 23, 7:04am

Fri Oct 23, 6:04am

Meta data:

ID: 3a881485-9547-42e5-9a11-05fd49d3d34f
Link: https://api.weather.gov/products/3a881485-9547-42e5-9a11-05fd49d3d34f